Home > Weather > Bad Oldesloe > Past weeks

Flag for Germany Weather for the Past 2 Weeks in Bad Oldesloe, Schleswig-Holstein, Germany

Now
45 °F

Passing clouds.


Feels Like: 43 °F
Forecast: 41 / 53 °F
Wind: 3 mph from Southwest

Location: Hamburg-Fuhlsbuettel

Current Time: Apr 29, 2016 at 11:46:07 PM

Latest Report: Apr 29, 2016 at 11:20 PM


Visibility: N/A

Pressure: 30.01 "Hg

Humidity: 81%

Dew Point: 39 °F

Location of Bad OldesloeLocation

Historic Weather in Bad Oldesloe — Graph

°F

Bad Oldesloe Temperature Yesterday

Maximum temperature yesterday: 50 °F (at 3:50 PM)
Minimum temperature yesterday: 37 °F (at 4:50 AM)
Average temperature yesterday: 43 °F

High & Low Weather Summary for the Past Weeks

 TemperatureHumidityPressure
High57 °F (Apr 16, 2:20 PM)100% (Apr 15, 12:20 PM)30.42 "Hg (Apr 15, 12:20 PM)
Low32 °F (Apr 21, 4:20 AM)41% (Apr 29, 2:50 PM)29.39 "Hg (Apr 26, 3:20 AM)
Average44 °F78%29.86 "Hg
* Reported Apr 14 10:20 PM — Apr 29 10:20 PM, Bad Oldesloe, Weather by CustomWeather, © 2016

Note: Actual official high and low records may vary slightly from our data, if they occured in-between our weather recording intervals... More about our weather records

Advertising

Bad Oldesloe Weather History for the Previous 24 Hours

Scroll right to see more
 ConditionsComfort  
Time TempWeatherWind HumidityBarometerVisibility
10:20 PM
Fri, Apr 29
45 °FClear.6 mph87%30.01 "Hg10 mi
9:50 PM45 °FClear.1 mph87%30.01 "Hg10 mi
9:20 PM45 °FSunny.2 mph81%30.01 "Hg10 mi
8:50 PM46 °FPassing clouds.3 mph76%30.01 "HgN/A
8:20 PM46 °FPartly sunny.7 mph82%30.01 "HgN/A
7:50 PM46 °FPartly sunny.3 mph82%30.01 "HgN/A
7:20 PM46 °FBroken clouds.6 mph87%29.98 "HgN/A
6:50 PM46 °FPartly sunny.9 mph87%29.98 "HgN/A
6:20 PM48 °FSprinkles. Partly sunny.9 mph82%29.98 "HgN/A
5:50 PM48 °FSprinkles. Scattered clouds.13 mph82%29.98 "HgN/A
5:20 PM52 °FLight rain. Overcast.14 mph62%29.95 "HgN/A
4:50 PM52 °FLight rain. Overcast.17 mph62%29.95 "HgN/A
4:20 PM52 °FLight rain. More clouds than sun.22 mph62%29.95 "HgN/A
3:50 PM54 °FSunny.23 mph47%29.92 "Hg10 mi
3:20 PM54 °FSunny.28 mph47%29.92 "Hg10 mi
2:50 PM54 °FSunny.22 mph41%29.92 "Hg10 mi
2:20 PM54 °FPassing clouds.17 mph44%29.92 "HgN/A
1:50 PM54 °FSunny.18 mph47%29.92 "Hg10 mi
1:20 PM54 °FMore clouds than sun.22 mph47%29.92 "HgN/A
12:50 PM54 °FMore clouds than sun.20 mph44%29.92 "HgN/A
12:20 PM54 °FBroken clouds.17 mph47%29.92 "HgN/A
11:50 AM54 °FBroken clouds.22 mph51%29.92 "HgN/A
11:20 AM52 °FPartly sunny.20 mph58%29.92 "HgN/A
10:50 AM50 °FSunny.16 mph62%29.92 "Hg10 mi
10:20 AM46 °FSunny.16 mph66%29.92 "Hg10 mi
9:50 AM46 °FSunny.17 mph71%29.92 "Hg10 mi
9:20 AM45 °FSunny.14 mph76%29.95 "Hg10 mi
8:50 AM43 °FSunny.16 mph76%29.95 "Hg10 mi
8:20 AM41 °FPassing clouds.13 mph81%29.95 "HgN/A
7:50 AM41 °FSunny.12 mph87%29.95 "Hg10 mi
7:20 AM39 °FSunny.13 mph87%29.95 "Hg10 mi
6:50 AM39 °FSunny.12 mph87%29.95 "Hg10 mi
6:20 AM37 °FClear.9 mph93%29.95 "Hg10 mi
5:50 AM37 °FClear.8 mph93%29.95 "Hg10 mi
5:20 AM37 °FClear.10 mph93%29.95 "Hg10 mi
4:20 AM36 °FPassing clouds.7 mph93%29.95 "HgN/A
3:50 AM36 °FPassing clouds.5 mph93%29.95 "HgN/A
3:20 AM36 °FChilly.5 mph93%29.95 "HgN/A
2:50 AM36 °FPassing clouds.6 mph93%29.95 "HgN/A
2:20 AM36 °FPassing clouds.6 mph93%29.95 "HgN/A
1:50 AM36 °FPassing clouds.6 mph87%29.95 "HgN/A
1:20 AM37 °FPassing clouds.6 mph93%29.95 "HgN/A
12:20 AM39 °FPassing clouds.8 mph87%29.95 "HgN/A
11:50 PM
Thu, Apr 28
41 °FPassing clouds.6 mph81%29.95 "HgN/A
11:20 PM41 °FSprinkles. Passing clouds.15 mph87%29.95 "HgN/A
Weather by CustomWeather, © 2016

See weather overviewHow to use our weather pages